Regional Weather Roundup
Issued by NWS

Home | Current Version | Previous Version | Text Only | Print | Product List | Glossary Off
Versions: 1 2 3 4 5 6 7 8 9 10 11 12 13 14 15 16 17 18 19 20 21 22 23 24 25 26 27 28

000
ASUS45 KBOU 221210
RWRCO

WEATHER ROUNDUP FOR COLORADO
NATIONAL WEATHER SERVICE DENVER/BOULDER CO
500 AM MST MON JAN 22 2018

NOTE: "FAIR" INDICATES FEW OR NO CLOUDS BELOW 12000 FEET WITH NO
SIGNIFICANT WEATHER AND/OR OBSTRUCTIONS TO VISIBILITY.

COZ001>005-013-030-031-221300-
...NORTHWEST COLORADO...

CITY           SKY/WX    TMP DP  RH WIND       PRES   REMARKS
CRAIG          FAIR      -5 -11  75 CALM      30.22R
HAYDEN         FAIR     N/A N/A N/A E3        30.20S
MEEKER         FAIR      -8 -12  83 NE3       30.21R
RABBIT EARS PA LGT SNOW   3   0  85 W12G21    29.98R VSB 3/4 WCI -13
STEAMBOAT SPGS CLOUDY     8   6  91 CALM      30.18R
WALDEN         FAIR       0  -6  78 CALM      30.09R
$$

COZ006>008-011-221300-
...WEST CENTRAL VALLEYS...

CITY           SKY/WX    TMP DP  RH WIND       PRES   REMARKS
GRAND JUNCTION FAIR      11   9  92 E7        30.27R WCI   0
MONTROSE       FAIR      14   9  80 SE12      30.28R WCI   0
EAGLE          FAIR       2  -2  83 E8        30.24R WCI -12
RIFLE          FAIR      14  10  84 NE7       30.26S WCI   4
DELTA          FAIR      17   9  73 E5        30.29R WCI   9
NUCLA          FAIR      12   5  73 CALM      30.28R
$$

COZ017>023-064>068-221300-
...SOUTHWEST COLORADO...

CITY           SKY/WX    TMP DP  RH WIND       PRES   REMARKS
DURANGO        FAIR       4   2  91 E3        30.12R
CORTEZ         FAIR       4   0  83 E8        30.20R WCI  -9
PAGOSA SPRINGS FAIR     N/A N/A N/A CALM      30.10R
TELLURIDE      FLURRIES   6   2  84 CALM      30.14S
WOLF CREEK PAS FAIR       1 -13  51 N10       30.00R WCI -14
$$

COZ009-010-012-014-032>034-037-058>063-221300-
...CENTRAL COLORADO...

CITY           SKY/WX    TMP DP  RH WIND       PRES   REMARKS
ASPEN          CLOUDY     8   3  80 SW5       30.15R WCI   0
BUENA VISTA    FAIR      13   0  55 N13       30.05S WCI  -2
COPPER MTN     NOT AVBL
BERTHOUD PASS  SNOW      -6 -17  59 N26G35    29.88R VSB 1/2 WCI -32
COTTONWOOD PAS   N/A     14   1  57 N12G18    29.96S WCI   0
GUNNISON       FAIR       2  -4  76 N6        30.16R WCI  -9
KREMMLING      CLOUDY     7   1  78 CALM      30.16R
LEADVILLE      FAIR      -2  -5  87 VRB5      30.01R WCI -12
MONARCH PASS   CLOUDY    -2  -6  84 SW31      30.01R WCI -29
SALIDA         FAIR      10   1  67 NW7       30.14R WCI  -1
SUNLIGHT       LGT SNOW N/A N/A N/A MISG      30.09R
WILKERSON PASS   N/A      1  -8  66 N15G26    29.89R WCI -18
$$

COZ069>075-221300-
...SAN LUIS VALLEY/SANGRE DE CRISTO MOUNTAINS...

CITY           SKY/WX    TMP DP  RH WIND       PRES   REMARKS
ALAMOSA        FAIR       2  -4  76 W3        30.06R
DEL NORTE      FAIR      14  -3  47 W10       30.05S WCI   1
LA VETA PASS   FAIR       5   1  85 SW21G33     N/A  WCI -16
SAGUACHE       FAIR      14   1  57 N12       30.08R WCI   0
$$

COZ035-036-038>040-221300-
...NORTHERN COLORADO FRONT RANGE...

CITY           SKY/WX    TMP DP  RH WIND       PRES   REMARKS
DENVER INTL AP FAIR      20   8  60 SW6       29.97R WCI  12
DMNS CITY PARK NOT AVBL
AURORA         PTCLDY    18   7  63 W7        29.97R WCI   8
FRONT RANGE AP FAIR      19  12  76 SW7       29.97S WCI   9
ERIE MUNI ARPT FAIR       5   2  87 CALM      30.03R
BOULDER MUN AP FAIR      27   5  39 W3        29.97R
CENTENNIAL     FAIR      21   7  54 W9        29.96R WCI  11
BROOMFIELD     FAIR      25   5  42 W12       29.97R WCI  14
FORT COLLINS   FAIR      15   9  76 SE3       29.97S
LONGMONT       FAIR      15   7  72 CALM      30.00R
$$

COZ041-046-047-076>085-087-088-221300-
...PIKES PEAK/PALMER DIVIDE AND SOUTHERN FOOTHILLS...

CITY           SKY/WX    TMP DP  RH WIND       PRES   REMARKS
COLO. SPRINGS  FAIR      19   5  54 N8        29.94R WCI   9
A. F. ACADEMY  CLEAR     19   1  45 N15       29.91S WCI   4
SCHRIEVER AFB  FAIR      21   3  46 NW16      29.94R WCI   7
CHEYENNE MTN   FAIR      19   3  49 S3        29.86R
ELLICOTT         N/A    N/A N/A N/A CALM        N/A
FALCON         FAIR      19   2  46 NW16G22   29.92R WCI   5
FORT CARSON    FAIR      17   6  62 CALM      29.93R
LIMON          MOCLDY    21  13  71 N23G31    29.92S WCI   5
MONUMENT HILL  FAIR      10   1  67 NW14      29.93S WCI  -5
CANON CITY     FAIR      25   9  50 W21       30.00R WCI  10
WALSENBURG     FAIR      23  10  58 W21G31    29.98R WCI   8
TRINIDAD       FAIR      16   8  71 W9        29.98R WCI   4
$$

COZ042>045-048>051-090-091-221300-
...NORTHEAST COLORADO...

CITY           SKY/WX    TMP DP  RH WIND       PRES   REMARKS
GREELEY ARPT   FAIR      14   7  73 N9        29.99R WCI   2
AKRON          CLOUDY    22  15  75 NW25      29.93R WCI   5
BURLINGTON     CLOUDY    25  22  88 NW35G49   29.86R FOG     WCI   7
WRAY             N/A     28  27  93 NW29G36   29.91R WCI  13
YUMA           CLOUDY    23  16  74 NW21G26   29.92R WCI   8
STERLING       CLOUDY    25  18  74 NW22      29.95S WCI  10
HOLYOKE        CLOUDY    30  27  86 NW21G29   29.91R WCI  17
FORT MORGAN    FAIR      24  11  59 NW20      29.98S WCI   9
$$

COZ086-089-092>099-221300-
...SOUTHEAST COLORADO...

CITY           SKY/WX    TMP DP  RH WIND       PRES   REMARKS
PUEBLO         FAIR      17   7  64 NW10      29.99R WCI   5
LA JUNTA       FAIR      24  14  65 W15       29.99R WCI  11
LAMAR          FAIR      26  18  71 NW16G26   29.95R WCI  14
SPRINGFIELD      N/A     25  18  74 NW30G46   29.87F WCI   8
$$




USA.gov is the U.S. government's official web portal to all federal, state and local government web resources and services.